カタログに戻る

CHECKMATE 6

運用中軍事PO
NORAD 56165·PAYLOAD·🇺🇸 United States

打ち上げ Apr 2, 2023 から Vandenberg Space Force Base

Loading…

次のパス (今後24時間)

TLE

最新Source: Space-Track

元期: Sep 14, 2026, 11:39 UTC

1 56165U 23050D   26257.48552000  .00000060  00000-0  40460-4 0  9993
2 56165  81.0084 345.8881 0019701  65.1387 295.1816 13.88751637174486

AllMySatでCHECKMATE 6をリアルタイム追跡

Download on the App Store